This is the latest recevied weather packets stored in our database for station/object N4DBJ. If no packets are shown the sender has not sent any weather packets the latest 10 day(s).
| Time | Temp. | Humidity | Pressure | Rain* | Wind** | Luminosity | Snow |
|---|---|---|---|---|---|---|---|
| 1777204658 | 9.44° C | 99% | 1011 hPa | 0 mm | - | 33 W/m² | - |
| 1777204353 | 9.44° C | 99% | 1011.1 hPa | 0 mm | - | 31 W/m² | - |
| 1777204051 | 9.44° C | 99% | 1011.1 hPa | 0 mm | - | 29 W/m² | - |
| 1777203751 | 9.44° C | 99% | 1011.2 hPa | 0 mm | - | 26 W/m² | - |
| 1777203446 | 9.44° C | 99% | 1011 hPa | 0 mm | - | 26 W/m² | - |
| 1777203142 | 9.44° C | 99% | 1011.1 hPa | 0 mm | - | 23 W/m² | - |
| 1777202839 | 9.44° C | 99% | 1011 hPa | 0 mm | - | 22 W/m² | - |
| 1777202537 | 9.44° C | 99% | 1010.9 hPa | 0 mm | - | 18 W/m² | - |
| 1777202233 | 9.44° C | 99% | 1010.7 hPa | 0 mm | - | 13 W/m² | - |
| 1777201929 | 9.44° C | 99% | 1010.8 hPa | 0 mm | - | 9 W/m² | - |
| 1777201625 | 9.44° C | 99% | 1010.8 hPa | 0 mm | - | 4 W/m² | - |
| 1777201321 | 9.44° C | 99% | 1010.7 hPa | 0 mm | - | 2 W/m² | - |
| 1777201016 | 9.44° C | 99% | 1010.6 hPa | 0 mm | - | 0 W/m² | - |
| 1777200714 | 9.44° C | 99% | 1010.4 hPa | 0 mm | - | 0 W/m² | - |
| 1777200413 | 8.89° C | 99% | 1010.4 hPa | 0 mm | - | 0 W/m² | - |
| 1777200110 | 8.89° C | 99% | 1010.3 hPa | 0 mm | - | 0 W/m² | - |
| 1777199806 | 8.89° C | 99% | 1010.3 hPa | 0 mm | - | 0 W/m² | - |
| 1777199506 | 8.89° C | 99% | 1010.1 hPa | 0 mm | - | 0 W/m² | - |
| 1777199206 | 8.89° C | 99% | 1010.3 hPa | 0 mm | - | 0 W/m² | - |
| 1777198905 | 8.89° C | 99% | 1010.3 hPa | 0 mm | - | 0 W/m² | - |
| 1777198602 | 8.89° C | 99% | 1010.2 hPa | 0 mm | - | 0 W/m² | - |
| 1777198300 | 8.89° C | 99% | 1010.1 hPa | 0 mm | - | 0 W/m² | - |
| 1777197996 | 8.89° C | 99% | 1010.1 hPa | 0 mm | - | 0 W/m² | - |
| 1777197691 | 8.89° C | 99% | 1009.8 hPa | 0 mm | - | 0 W/m² | - |
| 1777197387 | 8.89° C | 99% | 1010.1 hPa | 0 mm | - | 0 W/m² | - |
* Rain latest hour (hover to see other rain measurements)
** Current wind speed in m/s (hover to see current wind gust speed)